CEST,Max TemperatureF,Mean TemperatureF,Min TemperatureF,Max Dew PointF,MeanDew PointF,Min DewpointF,Max Humidity, Mean Humidity, Min Humidity, Max Sea Level PressureIn, Mean Sea Level PressureIn, Min Sea Level PressureIn, Max VisibilityMiles, Mean VisibilityMiles, Min VisibilityMiles, Max Wind SpeedMPH, Mean Wind SpeedMPH, Max Gust SpeedMPH,PrecipitationIn, CloudCover, Events, WindDirDegrees
2012-9-1,80,72,64,59,57,55,78,64,42,30.09,30.02,29.92,6,6,6,14,10,,0.00,6,Rain,322
2012-9-2,87,74,60,59,55,50,94,55,27,30.18,30.13,30.09,,,,14,6,,0.00,,,98
2012-9-3,89,74,60,57,53,48,77,48,24,30.15,30.08,30.01,,,,8,4,,0.00,,,58
2012-9-4,86,75,64,59,57,52,77,56,37,30.04,30.02,29.98,,,,12,5,,0.00,,,49
2012-9-5,87,73,59,61,57,52,88,60,31,30.04,29.99,29.92,6,6,4,13,4,,0.00,2,,340
2012-9-6,80,66,53,61,54,45,88,60,32,30.21,30.04,29.95,6,6,6,25,7,,0.00,5,Rain,317
2012-9-7,75,58,41,46,41,34,87,52,25,30.27,30.21,30.15,,,,12,4,,0.00,,,294
2012-9-8,82,66,51,50,47,45,82,51,30,30.15,30.12,30.06,,,,17,6,,0.00,,,292
2012-9-9,82,68,53,52,49,46,82,52,28,30.15,30.12,30.09,,,,8,4,,0.00,,,336
2012-9-10,86,68,51,52,49,46,88,50,27,30.18,30.13,30.06,,,,12,6,,0.00,,,95
2012-9-11,84,68,53,50,49,46,77,49,29,30.12,30.05,29.95,,,,13,5,,0.00,,,135
2012-9-12,84,68,53,50,47,45,77,48,27,29.98,29.84,29.71,,,,14,7,25,0.00,,,147
2012-9-13,64,58,53,55,53,46,100,89,52,29.83,29.73,29.65,6,6,5,14,9,,0.00,7,Rain,306
2012-9-14,62,58,53,57,55,54,100,92,77,29.95,29.88,29.83,6,5,3,15,9,,0.00,7,Rain,318
2012-9-15,73,63,53,52,47,43,77,61,38,30.04,29.91,29.83,6,6,6,23,11,30,0.00,6,Rain,298
2012-9-16,69,58,46,52,46,41,87,63,40,30.12,30.07,30.04,6,6,6,12,5,,0.00,3,,4
2012-9-17,73,58,44,52,47,41,87,64,38,30.09,30.06,30.04,6,6,6,10,3,,0.00,3,,136
2012-9-18,77,66,55,55,54,50,82,63,44,30.06,30.00,29.92,6,6,6,9,4,,0.00,6,,146
2012-9-19,78,66,55,61,54,48,94,69,42,29.92,29.88,29.83,6,6,2,20,7,31,0.00,6,Rain,250
2012-9-20,59,50,42,50,46,41,100,80,55,30.21,30.07,29.92,6,6,5,20,13,31,0.00,7,Rain,335
2012-9-21,64,50,37,43,38,32,93,64,30,30.24,30.19,30.12,6,6,6,8,4,,0.00,,Fog,184
2012-9-22,68,55,42,50,42,36,81,62,40,30.12,30.03,29.98,6,6,6,13,6,,0.00,4,,139
2012-9-23,68,60,50,54,45,34,88,61,32,30.12,30.07,29.98,6,6,6,12,5,,0.00,6,Rain,291
2012-9-24,80,65,50,59,52,43,88,67,45,29.98,29.80,29.65,6,6,6,15,6,,0.00,6,,116
2012-9-25,75,67,59,61,54,45,100,69,34,29.86,29.76,29.62,6,6,1,24,9,58,0.00,4,Rain-Thunderstorm,258
2012-9-26,82,66,51,55,53,48,94,61,37,29.89,29.87,29.86,,,,18,9,,0.00,,,154
2012-9-27,84,70,57,57,54,52,88,59,35,29.95,29.88,29.86,6,6,6,17,8,,0.00,2,,187
2012-9-28,73,63,53,55,48,41,88,62,33,30.18,30.11,29.95,6,6,6,20,7,,0.00,3,,292
2012-9-29,75,66,57,61,55,48,88,69,52,30.15,30.08,30.01,6,6,6,14,4,,0.00,6,Rain,142
2012-9-30,75,67,59,61,55,50,88,69,41,30.15,30.09,29.98,6,6,6,10,6,,0.00,3,Rain,331